Location: Eferding
(48.3167°N, 14.0167°E)
Time: 07:41:47
(UTC+00:00)

ATLAS 3B R/B - Pass Details

Date: 12 November 2019
Orbit: 1030 x 1165 km, 63.8° (Epoch: 03 December)

Event Time Altitude Azimuth Distance (km) Brightness Sun altitude
Rises 15:52:13 0° 263° (W) 3,803 7.5 -4.3°
Reaches altitude 10° 15:55:13 10° 275° (W) 2,841 6.2 -4.7°
Maximum altitude 16:00:59 30° 335° (NNW) 1,766 4.0 -5.6°
Drops below altitude 10° 16:06:45 10° 35° (NE) 2,840 4.5 -6.5°
Enters shadow 16:08:39 - 42° (NE) 3,431 4.8 -6.8°
